Location: Namasale
(1.5000°N, 32.6167°E)
Time: 22:53:40
(UTC+00:00)

Vanguard 3 - Pass Details

Date: 02 December 2021
Orbit: 508 x 3260 km, 33.3° (Epoch: 27 January)

Event Time Altitude Azimuth Distance (km) Brightness Sun altitude
Rises 20:35:17 0° 217° (SW) 4,761 11.5 -64.2°
Reaches altitude 10° 20:38:11 10° 209° (SSW) 4,102 11.0 -64.6°
Enters shadow 20:40:08 18° 203° (SSW) 3,727 10.6 -64.9°
